Regional Weather Roundup
Issued by NWS Grand Forks, ND

Home | Current Version | Previous Version | Text Only | Print | Product List | Glossary Off
Versions: 1 2 3 4 5 6 7 8 9 10 11 12 13 14 15 16 17 18 19 20 21 22 23 24 25 26 27 28 29 30 31 32 33 34 35 36 37 38 39 40 41 42 43 44 45 46 47 48 49 50

000
ASUS43 KFGF 050310
RWRFGF
PRAIRIE TO PINES  WEATHER ROUNDUP
NATIONAL WEATHER SERVICE EASTERN NORTH DAKOTA/GRAND FORKS ND
1000 PM CDT TUE AUG 04 2015

 **SATELLITE DATA USED TO AUGMENT SKY COVER AT AUTOMATED STATIONS**
 *****  WEATHER ACROSS EASTERN NORTH DAKOTA  *****

CITY           SKY/WX    TMP DP  RH WIND       PRES   REMARKS
GRAND FORKS    PTCLDY    67  55  65 NE7       30.01R
GRAND FRKS AFB CLEAR     62  51  67 E7        30.02R
GRAND FRKS NWS   N/A     64 N/A N/A N2          N/A
DEVILS LAKE      N/A    N/A N/A N/A MISG        N/A
FARGO          CLEAR     65  56  72 E5        30.01R
WAHPETON ARPT  CLEAR     68  48  49 NE6       30.01S
$$

 ***** WEATHER ACROSS CENTRAL AND WESTERN NORTH DAKOTA  *****

CITY           SKY/WX    TMP DP  RH WIND       PRES   REMARKS
BISMARCK       PTCLDY    69  61  75 SE8       29.96R
MINOT          MOCLDY    67  51  56 E7        29.97R
JAMESTOWN      CLEAR     65  57  75 E9        30.01R
MINOT AFB      MOCLDY    68  55  63 E12       29.96R
GARRISON         N/A     69  58  67 E9        29.96R
WILLISTON      CLOUDY    79  55  43 SE16G28   29.89R
DICKINSON      CLOUDY    70  56  61 SE10      29.93R
HETTINGER      CLOUDY    74  53  48 SE13      29.96S
$$

 *****  OTHER AIRPORT OBSERVATIONS IN OUR AREA  *****

CITY           SKY/WX    TMP DP  RH WIND       PRES   REMARKS
WALHALLA       FAIR      59  59 100 MISG      30.04R
GRAFTON AIRPOR FAIR      61  55  82 NE6       30.03R HAZE
VALLEY CITY AR FAIR      64  55  72 SE6       30.02R
CANDO          NOT AVBL
CAVALIER APRT  FAIR      63  55  77 NE5       30.03R
GWINNER        FAIR      64  55  72 E6        30.01S
SHEYENNE NWR     N/A     64  55  71 NE6       29.95
ROLLA          FAIR      61  55  82 E8        30.05R
 ***** THE ABOVE OBSERVATIONS ARE NON NWS ARE NOT QUALITY
       CONTROLLED AND MAY MIS-REPORT RAIN FOR SNOW...
$$

  *****  WEATHER ACROSS NORTHERN MINNESOTA  *****

CITY           SKY/WX    TMP DP  RH WIND       PRES   REMARKS
FLAG ISLAND    CLEAR     64  52  63 NE3       30.03S
WARROAD        CLEAR     59  54  82 SE6       30.05R
ROSEAU         CLEAR     61  54  77 SE7       30.04R
HALLOCK        CLEAR     61  55  82 N5        30.03R
THF RVR FALLS  CLEAR     63  54  72 E7        30.04R
BAUDETTE       CLEAR     58  52  80 E6        30.04S
WASKISH        CLEAR     54  52  94 CALM      30.06R
CROOKSTON      CLEAR     66  54  63 E3        30.04R
STEPHEN NDAWN    N/A     57  55  94 NE5         N/A
GREENBUSH NDAW   N/A     57  55  94 N3          N/A
$$
  *****  WEATHER ACROSS CENTRAL AND WEST MINNESOTA  *****

CITY           SKY/WX    TMP DP  RH WIND       PRES   REMARKS
FOSSTON        CLEAR     59  48  67 CALM      30.05R
BEMIDJI        CLEAR     59  53  80 CALM      30.05R
PARK RAPIDS    CLEAR     67  53  61 E3        30.04R
ELBOW LAKE     FAIR      69  58  67 CALM      30.02R
WADENA         CLEAR     61  54  77 CALM      30.04R
DETROIT LAKES  CLEAR     66  54  63 CALM      30.05R
MOORHEAD       CLEAR     66  55  68 E3        30.03R
FERGUS FALLS   CLEAR     66  54  63 CALM      30.02R
MORRIS MN      CLEAR     66  55  68 CALM      30.02R
STAPLES        CLEAR     66  54  63 NE3       30.04R
$$
  *****  WEATHER ELSEWHERE ACROSS MINNESOTA  *****

CITY           SKY/WX    TMP DP  RH WIND       PRES   REMARKS
DULUTH         PTCLDY    57  49  74 E5        30.05R
INTRNTL FALLS  CLEAR     49  47  93 CALM      30.06R
ELY            MOCLDY    57  50  77 CALM      30.06S
CLOQUET        PTCLDY    61  48  63 NE6       30.05R
WHEATON        CLEAR     61  55  82 NE3       30.03R
BRAINERD       CLEAR     64  52  64 CALM      30.04R
HIBBING        CLEAR     54  48  80 N3        30.06R
ALEXANDRIA     CLEAR     66  59  78 CALM      30.05R
SAINT CLOUD    CLEAR     64  57  78 CALM      30.02R
MINNEAPOLIS    PTCLDY    74  51  44 W6        30.01R
$$

  *****  WEATHER ACROSS SOUTH DAKOTA  *****

CITY           SKY/WX    TMP DP  RH WIND       PRES   REMARKS
SIOUX FALLS    MOCLDY    69  62  78 E8        30.00R
BROOKINGS      CLEAR     70  57  64 E7        30.03S
WATERTOWN      PTCLDY    70  54  56 E6        30.02R
HURON          MOCLDY    71  61  70 SE7       29.97R
SISSETON         N/A     63  56  78 CALM      30.00R
ABERDEEN       PTCLDY    70  56  61 E7        29.98R
MITCHELL       MOCLDY    69  65  86 E7        29.99R
PIERRE         CLOUDY    74  60  61 SE10      29.95R
MOBRIDGE       PTCLDY    71  62  73 SE8       29.96R
RAPID CITY     CLOUDY    71  60  68 E3        29.97R
$$

  *****  SOME WEATHER IN NEARBY STATES *****

CITY           SKY/WX    TMP DP  RH WIND       PRES   REMARKS
GLASGOW MT     CLOUDY    69  61  75 S6        29.90R
GREAT FALLS MT PTCLDY    69  51  52 S7        29.93S
CHEYENNE WY    PTCLDY    66  53  63 N5        30.18R
SCOTTSBLUFF NE MOCLDY    66  64  93 E6        30.04R
OMAHA NE       RAIN      72  70  93 SE10      29.97R FOG
DES MOINES IA  CLOUDY    74  61  63 E7        30.01R
DAVENPORT IA   CLEAR     65  62  90 CALM      30.03S
CHICAGO IL     PTCLDY    72  58  61 VRB6      30.03R
EAU CLAIRE WI  CLEAR     64  58  80 CALM      30.00R
LA CROSSE WI   CLEAR     67  58  72 SE6       30.01R
$$

  *****  SOME NATIONAL WEATHER *****

CITY           SKY/WX    TMP DP  RH WIND       PRES   REMARKS
LA GUARDIA NY  PTCLDY    81  56  42 NW10      29.89S
RALEIGH NC     PTCLDY    81  72  74 S3        29.98R
ATLANTA GA     PTCLDY    82  63  52 S5        30.02R
NEW ORLEANS LA MOCLDY    81  73  76 SW9       29.98R
OKLAHOMA CITY  PTCLDY    79  74  84 SE6       29.95R
ALBUQUERQUE NM PTCLDY    87  40  19 N7        30.12R
SALT LAKE CITY MOCLDY    83  53  35 S5        29.97R
LOS ANGELES CA PTCLDY    71  61  70 SW15      29.88F
BOISE ID       MOCLDY    87  45  23 SE5       29.85F
SEATTLE WA     PTCLDY    73  50  44 SW9       29.97R
$$

*** WEATHER ACROSS MANITOBA...SASKATCHEWAN AND ONTARIO ***
                ***ONTARIO***

CITY           SKY/WX    TMP DP  RH WIND       PRES   REMARKS
GERALDTON      PTCLDY    54  50  87 VRB2      29.98R
THUNDER BAY    PTCLDY    55  52  88 NW7       30.02R
SIOUX LOOKOUT  PTCLDY    55  52  88 NW5       30.06R
TORONTO        PTCLDY    66  57  72 NW12      29.91S
BIG TROUT LK   CLOUDY    55  48  76 N7        30.02S
PICKLE LAKE    NOT AVBL
DRYDEN         MOCLDY    57  52  82 SW2       30.07R
KENORA         PTCLDY    57  52  82 SE5       30.07R
$$
                *** MANITOBA***

CITY           SKY/WX    TMP DP  RH WIND       PRES   REMARKS
BRANDON        CLOUDY    59  55  88 E9        30.03R
DAUPHIN        PTCLDY    61  55  82 E8        30.03R
ISLAND LAKE    MOCLDY    59  55  88 CALM      30.07R
PILOT MOUND      N/A     59  54  82 E7          N/A
THE PAS        CLOUDY    64  54  68 NE2       30.02S
THOMPSON       MOCLDY    55  50  82 NE2       30.08R
WINNIPEG       PTCLDY    59  52  77 NE5       30.05R
LYNN LAKE      CLOUDY    59  52  77 NE6       30.08R
CHURCHILL      FOG       48  46  93 NW3       30.13R VSB 1/4
GILLAM         CLOUDY    52  48  87 E6        30.10R
$$
                ***SASKATCHEWAN***

CITY           SKY/WX    TMP DP  RH WIND       PRES   REMARKS
ESTEVAN        CLOUDY    68  55  64 SE13G22   29.94R
KINDERSLEY     NOT AVBL
LLOYDMINSTER   CLOUDY    63  57  82 E7        29.85R
PRINCE ALBERT  LGT RAIN  63  57  82 E8        29.93R
REGINA         CLOUDY    68  55  64 CALM      29.91R
YORKTON        CLEAR     64  57  77 SE10      29.97S HAZE
N. BATTLEFORD  PTCLDY    64  55  72 E16G26    29.82R
LA RONGE       LGT RAIN  59  55  88 SW3       30.02R
SASKATOON      MOCLDY    66  59  77 E16G23    29.83S
SWIFT CURRENT  CLOUDY    68  57  68 SW8       29.85R HAZE
$$
NOTE: THESE ARE AUTOMATED STATIONS WITH LIMITED QUALITY CONTROL
      "FAIR" INDICATES FEW OR NO CLOUDS BELOW 12,000 FEET WITH NO
      SIGNIFICANT WEATHER AND/OR OBSTRUCTIONS TO VISIBILITY.
      SKY/WX - SKY CONDITION AND SIGNIFICANT WEATHER.
      TMP - AIR TEMPERATURE.    DP   - DEWPOINT TEMPERATURE.
      RH  - RELATIVE HUMIDITY.  PRES - PRESSURE.
      HX  - HEAT INDEX.         WCI  - WIND CHILL INDEX.
$



USA.gov is the U.S. government's official web portal to all federal, state and local government web resources and services.